GW3336 Weather Reports


Display with metric or nautical units.
time (UTC)temp
F
wind
direction
speed
MPH
gust
MPH
rain 1hr
in
rain 24hr
in
rain mn
in
humidity
%
barometer
mb
20260504100615 49 321 3.0 4.0 0.00 0.00 0.00 73 996.7
20260504100113 49 319 4.0 4.0 0.00 0.00 0.00 73 996.7
20260504081506 52 2 15.0 19.0 0.00 0.00 0.00 67 996.3
20260504081002 53 357 15.0 21.0 0.00 0.00 0.00 67 996.1
20260504080458 53 345 18.0 21.0 0.00 0.00 0.00 65 996.0
20260504050305 61 260 10.0 14.0 0.00 0.00 0.00 38 997.0
20260504045802 61 229 12.0 17.0 0.00 0.00 0.00 38 997.0
20260504045256 61 181 7.0 9.0 0.00 0.00 0.00 38 997.1
20260504044754 61 207 7.0 10.0 0.00 0.00 0.00 38 997.3
20260504044252 62 182 8.0 9.0 0.00 0.00 0.00 38 997.4
20260504043749 61 207 9.0 14.0 0.00 0.00 0.00 37 997.6
20260504043245 61 251 10.0 11.0 0.00 0.00 0.00 37 997.6
20260504042743 61 225 5.0 7.0 0.00 0.00 0.00 38 997.9
20260504042240 61 253 9.0 13.0 0.00 0.00 0.00 38 998.1
20260504041736 62 238 10.0 14.0 0.00 0.00 0.00 37 998.1
20260504041232 62 275 6.0 8.0 0.00 0.00 0.00 38 998.2
20260504040728 62 244 9.0 11.0 0.00 0.00 0.00 38 997.9
20260504040226 62 187 5.0 8.0 0.00 0.00 0.00 38 998.2
20260504035722 62 288 6.0 8.0 0.00 0.00 0.00 38 998.6
20260504035219 62 224 7.0 8.0 0.00 0.00 0.00 38 998.6
20260504034717 62 239 10.0 14.0 0.00 0.00 0.00 38 998.7
20260504034214 62 185 7.0 8.0 0.00 0.00 0.00 38 998.9
20260504033711 62 256 7.0 9.0 0.00 0.00 0.00 38 999.0
20260504033208 62 252 10.0 13.0 0.00 0.00 0.00 38 999.2
20260504032705 61 240 6.0 8.0 0.00 0.00 0.00 38 999.2
20260504032203 62 239 6.0 7.0 0.00 0.00 0.00 38 999.2
20260504031659 62 213 6.0 8.0 0.00 0.00 0.00 38 999.5
20260504031155 62 206 6.0 7.0 0.00 0.00 0.00 38 999.7
20260504030652 62 214 8.0 9.0 0.00 0.00 0.00 38 999.5
20260504030149 62 237 7.0 9.0 0.00 0.00 0.00 38 999.5
20260504025646 62 233 7.0 9.0 0.00 0.00 0.00 38 999.7
20260504025142 62 253 5.0 9.0 0.00 0.00 0.00 39 999.8
20260504024640 61 203 4.0 4.0 0.00 0.00 0.00 39 999.8
20260504024136 61 189 4.0 4.0 0.00 0.00 0.00 40 999.8
20260504023633 61 206 3.0 6.0 0.00 0.00 0.00 40 1000.1
20260504023130 61 264 2.0 3.0 0.00 0.00 0.00 39 1000.1
20260504022626 62 216 4.0 6.0 0.00 0.00 0.00 38 1000.2
20260504022122 62 189 4.0 4.0 0.00 0.00 0.00 38 1000.1
20260504021620 62 234 4.0 6.0 0.00 0.00 0.00 37 1000.2
20260504021116 62 186 3.0 4.0 0.00 0.00 0.00 37 1000.4
20260504020614 63 219 3.0 4.0 0.00 0.00 0.00 36 1000.7
20260504020109 63 246 6.0 8.0 0.00 0.00 0.00 35 1000.7
20260504015606 63 200 4.0 6.0 0.00 0.00 0.00 36 1000.8
20260504015102 63 189 2.0 2.0 0.00 0.00 0.00 35 1000.8
20260504014558 62 228 5.0 6.0 0.00 0.00 0.00 36 1001.0
20260504014055 63 237 3.0 4.0 0.00 0.00 0.00 36 1001.1
20260504013553 63 236 5.0 7.0 0.00 0.00 0.00 36 1001.3
20260504013050 63 207 2.0 3.0 0.00 0.00 0.00 36 1001.3
20260504012547 64 218 5.0 6.0 0.00 0.00 0.00 35 1001.5
20260504012045 64 241 5.0 6.0 0.00 0.00 0.00 35 1001.7
20260504011542 65 201 0.0 1.0 0.00 0.00 0.00 34 1001.7
20260504011038 66 327 6.0 9.0 0.00 0.00 0.00 32 1001.6
20260504010533 66 211 6.0 7.0 0.00 0.00 0.00 32 1001.8
20260504010030 66 271 4.0 6.0 0.00 0.00 0.00 32 1001.9
20260504005526 66 280 6.0 9.0 0.00 0.00 0.00 32 1002.1
20260504005024 67 213 2.0 7.0 0.00 0.00 0.00 32 1002.2
20260504004522 67 296 4.0 6.0 0.00 0.00 0.00 32 1002.6
20260504004019 67 252 4.0 4.0 0.00 0.00 0.00 33 1002.4
20260504003515 67 300 3.0 4.0 0.00 0.00 0.00 32 1002.3
20260504003012 67 284 6.0 8.0 0.00 0.00 0.00 32 1002.5
20260504002509 67 261 7.0 10.0 0.00 0.00 0.00 31 1002.6
20260504002006 68 251 5.0 8.0 0.00 0.00 0.00 32 1002.7
20260504001504 68 295 4.0 6.0 0.00 0.00 0.00 31 1002.7
20260504001000 68 229 9.0 10.0 0.00 0.00 0.00 31 1002.6
20260504000457 68 299 4.0 4.0 0.00 0.00 0.00 31 1002.8
20260503235954 68 324 5.0 7.0 0.00 0.00 0.00 32 1002.8
20260503235452 68 299 4.0 6.0 0.00 0.00 0.00 31 1002.9
20260503234949 69 303 6.0 8.0 0.00 0.00 0.00 31 1003.2
20260503234446 69 281 5.0 6.0 0.00 0.00 0.00 31 1003.0
20260503233944 69 306 6.0 8.0 0.00 0.00 0.00 32 1003.4
20260503233440 69 306 4.0 4.0 0.00 0.00 0.00 32 1003.3
20260503232937 69 342 2.0 3.0 0.00 0.00 0.00 31 1003.6
20260503232434 69 308 4.0 6.0 0.00 0.00 0.00 32 1003.6
20260503231932 68 303 4.0 7.0 0.00 0.00 0.00 33 1003.7
20260503231429 69 331 9.0 11.0 0.00 0.00 0.00 32 1003.8
20260503230925 69 302 4.0 4.0 0.00 0.00 0.00 32 1003.8
20260503230422 69 326 6.0 8.0 0.00 0.00 0.00 32 1003.8
20260503225920 69 318 4.0 10.0 0.00 0.00 0.00 33 1004.0
20260503225416 67 326 2.0 2.0 0.00 0.00 0.00 33 1004.0
20260503224912 67 327 6.0 7.0 0.00 0.00 0.00 36 1004.1
20260503224409 67 311 3.0 3.0 0.00 0.00 0.00 34 1004.1
20260503223907 68 291 4.0 6.0 0.00 0.00 0.00 33 1004.2
20260503223405 69 310 5.0 7.0 0.00 0.00 0.00 34 1004.4
20260503222859 68 306 1.0 2.0 0.00 0.00 0.00 33 1004.4
20260503222358 68 309 3.0 7.0 0.00 0.00 0.00 31 1004.5
20260503221856 67 323 2.0 2.0 0.00 0.00 0.00 32 1004.6
20260503221355 67 262 5.0 7.0 0.00 0.00 0.00 32 1004.6
20260503220850 68 271 4.0 6.0 0.00 0.00 0.00 32 1004.7
20260503220347 68 295 6.0 7.0 0.00 0.00 0.00 31 1004.6
20260503215844 68 294 5.0 7.0 0.00 0.00 0.00 31 1004.7
20260503215341 68 254 6.0 8.0 0.00 0.00 0.00 28 1004.7
20260503214839 68 247 10.0 13.0 0.00 0.00 0.00 30 1004.9
20260503214336 68 327 6.0 8.0 0.00 0.00 0.00 31 1004.9
20260503213833 68 300 3.0 4.0 0.00 0.00 0.00 32 1005.0
20260503213331 68 291 4.0 4.0 0.00 0.00 0.00 32 1004.9
20260503212828 68 308 6.0 9.0 0.00 0.00 0.00 30 1005.2
20260503212326 67 301 2.0 2.0 0.00 0.00 0.00 35 1005.2
20260503211823 67 316 3.0 3.0 0.00 0.00 0.00 32 1005.5
20260503211319 68 301 5.0 7.0 0.00 0.00 0.00 31 1005.4
20260503210819 68 297 2.0 3.0 0.00 0.00 0.00 34 1005.4
20260503210317 67 288 3.0 4.0 0.00 0.00 0.00 32 1005.5
20260503205812 68 303 8.0 10.0 0.00 0.00 0.00 32 1005.5
20260503205309 67 271 6.0 7.0 0.00 0.00 0.00 33 1005.8
20260503204805 67 287 5.0 7.0 0.00 0.00 0.00 32 1006.3
20260503204303 66 281 4.0 4.0 0.00 0.00 0.00 33 1006.2
20260503203800 66 333 2.0 3.0 0.00 0.00 0.00 32 1006.5
20260503203257 67 322 4.0 4.0 0.00 0.00 0.00 36 1006.4
20260503202754 66 305 2.0 3.0 0.00 0.00 0.00 38 1006.4
20260503202252 65 315 4.0 4.0 0.00 0.00 0.00 35 1006.6
20260503201750 65 322 4.0 6.0 0.00 0.00 0.00 35 1006.6
20260503201247 65 5 4.0 6.0 0.00 0.00 0.00 35 1006.8
20260503200744 65 343 1.0 2.0 0.00 0.00 0.00 35 1006.8
20260503200240 64 322 2.0 3.0 0.00 0.00 0.00 41 1006.8
20260503195737 63 306 4.0 6.0 0.00 0.00 0.00 37 1007.0
20260503195234 64 292 5.0 7.0 0.00 0.00 0.00 38 1007.1
20260503194732 64 343 5.0 6.0 0.00 0.00 0.00 40 1007.2
20260503194227 64 350 5.0 7.0 0.00 0.00 0.00 35 1007.1
20260503193723 64 297 2.0 2.0 0.00 0.00 0.00 36 1007.3
20260503193219 63 311 5.0 6.0 0.00 0.00 0.00 39 1007.4
20260503192715 63 324 6.0 8.0 0.00 0.00 0.00 40 1007.5
20260503192211 63 340 3.0 3.0 0.00 0.00 0.00 40 1007.6
20260503191708 62 312 4.0 6.0 0.00 0.00 0.00 41 1007.8
20260503191205 61 357 4.0 4.0 0.00 0.00 0.00 41 1007.9
20260503190701 62 329 4.0 4.0 0.00 0.00 0.00 39 1007.9
20260503190158 61 313 4.0 4.0 0.00 0.00 0.00 40 1007.9
20260503185655 62 339 7.0 8.0 0.00 0.00 0.00 39 1008.2
20260503185150 62 327 3.0 3.0 0.00 0.00 0.00 43 1008.1
20260503184645 61 352 5.0 7.0 0.00 0.00 0.00 44 1008.4
20260503184142 61 317 3.0 3.0 0.00 0.00 0.00 40 1008.0
20260503183638 61 323 4.0 4.0 0.00 0.00 0.00 40 1008.5
20260503183136 61 308 5.0 7.0 0.00 0.00 0.00 37 1008.7
20260503182634 61 318 5.0 7.0 0.00 0.00 0.00 39 1008.5
20260503182132 61 351 4.0 6.0 0.00 0.00 0.00 38 1008.7
20260503181629 61 331 5.0 7.0 0.00 0.00 0.00 41 1008.9
20260503181126 60 188 1.0 2.0 0.00 0.00 0.00 37 1009.1
20260503180622 60 347 9.0 10.0 0.00 0.00 0.00 40 1008.9
20260503180120 60 330 3.0 3.0 0.00 0.00 0.00 41 1009.2
20260503175617 60 11 2.0 4.0 0.00 0.00 0.00 37 1008.9
20260503175114 60 336 1.0 1.0 0.00 0.00 0.00 39 1009.3
20260503174611 59 324 6.0 7.0 0.00 0.00 0.00 40 1009.2
20260503174108 59 18 6.0 7.0 0.00 0.00 0.00 38 1009.3
20260503173603 59 11 4.0 6.0 0.00 0.00 0.00 43 1009.2
20260503173059 59 311 4.0 6.0 0.00 0.00 0.00 39 1009.3
20260503172551 58 337 4.0 6.0 0.00 0.00 0.00 40 1009.5
20260503172048 58 333 7.0 8.0 0.00 0.00 0.00 41 1009.5
20260503171544 58 328 4.0 6.0 0.00 0.00 0.00 43 1009.6
20260503171042 58 223 4.0 6.0 0.00 0.00 0.00 42 1009.7
20260503170538 57 347 7.0 8.0 0.00 0.00 0.00 42 1009.8
20260503150931 55 349 4.0 6.0 0.00 0.00 0.00 46 1009.8
20260503150427 55 359 5.0 6.0 0.00 0.00 0.00 45 1009.8
20260503131320 48 9 4.0 4.0 0.00 0.00 0.00 69 1009.6
20260503130818 48 341 4.0 4.0 0.00 0.00 0.00 70 1009.7
20260503130315 48 5 3.0 3.0 0.00 0.00 0.00 71 1009.6
20260503110709 47 0 4.0 4.0 0.00 0.00 0.00 77 1008.2
20260503110206 47 357 3.0 4.0 0.00 0.00 0.00 79 1008.0